This is the latest recevied weather packets stored in our database for station/object KI5RAB. If no packets are shown the sender has not sent any weather packets the latest 10 day(s).
| Time | Temp. | Humidity | Pressure | Rain* | Wind** | Luminosity | Snow |
|---|---|---|---|---|---|---|---|
| 1778197940 | 20.56° C | 63% | 1017.1 hPa | 0 mm | - | 53 W/m² | - |
| 1778197636 | 20.56° C | 64% | 1017.4 hPa | 0 mm | - | 47 W/m² | - |
| 1778197333 | 20.56° C | 64% | 1017.6 hPa | 0 mm | - | 37 W/m² | - |
| 1778197030 | 20.56° C | 63% | 1017.6 hPa | 0 mm | - | 39 W/m² | - |
| 1778196728 | 20.56° C | 62% | 1017.8 hPa | 0 mm | - | 57 W/m² | - |
| 1778196424 | 20.56° C | 62% | 1017.9 hPa | 0 mm | - | 73 W/m² | - |
| 1778196122 | 20.56° C | 62% | 1017.9 hPa | 0 mm | - | 79 W/m² | - |
| 1778195818 | 20.56° C | 62% | 1017.7 hPa | 0 mm | - | 82 W/m² | - |
| 1778195515 | 20.56° C | 61% | 1018.1 hPa | 0 mm | - | 93 W/m² | - |
| 1778195212 | 20.56° C | 62% | 1018.3 hPa | 0 mm | - | 102 W/m² | - |
| 1778194909 | 20.56° C | 62% | 1018.2 hPa | 0 mm | - | 88 W/m² | - |
| 1778194609 | 20.56° C | 62% | 1018 hPa | 0 mm | - | 108 W/m² | - |
| 1778194306 | 20.56° C | 62% | 1018.1 hPa | 0 mm | - | 104 W/m² | - |
| 1778194001 | 20.56° C | 62% | 1018.2 hPa | 0 mm | - | 167 W/m² | - |
| 1778193698 | 20.56° C | 62% | 1018.2 hPa | 0 mm | - | 187 W/m² | - |
| 1778193394 | 20.56° C | 62% | 1018.4 hPa | 0 mm | - | 155 W/m² | - |
| 1778193091 | 20.56° C | 63% | 1018.4 hPa | 0 mm | - | 165 W/m² | - |
| 1778192788 | 20.56° C | 63% | 1018.5 hPa | 0 mm | - | 165 W/m² | - |
| 1778192484 | 21.11° C | 63% | 1018.7 hPa | 0 mm | - | 136 W/m² | - |
| 1778192180 | 21.11° C | 62% | 1018.7 hPa | 0 mm | - | 151 W/m² | - |
| 1778191877 | 20.56° C | 61% | 1018.2 hPa | 0 mm | - | 196 W/m² | - |
| 1778191575 | 20.56° C | 62% | 1018.4 hPa | 0 mm | - | 220 W/m² | - |
| 1778191272 | 20.56° C | 63% | 1017.9 hPa | 0 mm | - | 154 W/m² | - |
| 1778190968 | 20.56° C | 64% | 1018.5 hPa | 0 mm | - | 119 W/m² | - |
| 1778190666 | 20.56° C | 64% | 1018.7 hPa | 0 mm | - | 75 W/m² | - |
* Rain latest hour (hover to see other rain measurements)
** Current wind speed in m/s (hover to see current wind gust speed)